Year,Month,Day,Hour,Minute,Value (Times are PST for temperature in C)
2013,09,24,00,00,6.70
2013,09,24,00,01,6.70
2013,09,24,00,02,6.70
2013,09,24,00,03,6.70
2013,09,24,00,04,6.70
2013,09,24,00,05,6.70
2013,09,24,00,06,6.70
2013,09,24,00,07,6.70
2013,09,24,00,08,6.70
2013,09,24,00,09,6.70
2013,09,24,00,10,6.70
2013,09,24,00,11,6.70
2013,09,24,00,12,6.70
2013,09,24,00,13,6.70
2013,09,24,00,14,6.70
2013,09,24,00,15,6.70
2013,09,24,00,16,6.70
2013,09,24,00,17,6.70
2013,09,24,00,18,6.70
2013,09,24,00,19,6.70
2013,09,24,00,20,6.70
2013,09,24,00,21,6.70
2013,09,24,00,22,6.70
2013,09,24,00,23,6.70
2013,09,24,00,24,6.80
2013,09,24,00,25,6.80
2013,09,24,00,26,6.70
2013,09,24,00,27,6.70
2013,09,24,00,28,6.70
2013,09,24,00,29,6.70
2013,09,24,00,30,6.70
2013,09,24,00,31,6.70
2013,09,24,00,32,6.70
2013,09,24,00,33,6.70
2013,09,24,00,34,6.60
2013,09,24,00,35,6.60
2013,09,24,00,36,6.60
2013,09,24,00,37,6.60
2013,09,24,00,38,6.60
2013,09,24,00,39,6.60
2013,09,24,00,40,6.60
2013,09,24,00,41,6.60
2013,09,24,00,42,6.60
2013,09,24,00,43,6.60
2013,09,24,00,44,6.60
2013,09,24,00,45,6.60
2013,09,24,00,46,6.60
2013,09,24,00,47,6.60
2013,09,24,00,48,6.60
2013,09,24,00,49,6.60
2013,09,24,00,50,6.60
2013,09,24,00,51,6.60
2013,09,24,00,52,6.60
2013,09,24,00,53,6.60
2013,09,24,00,54,6.60
2013,09,24,00,55,6.60
2013,09,24,00,56,6.60
2013,09,24,00,57,6.60
2013,09,24,00,58,6.60
2013,09,24,00,59,6.60
2013,09,24,01,00,6.60
2013,09,24,01,01,6.50
2013,09,24,01,02,6.50
2013,09,24,01,03,6.50
2013,09,24,01,04,6.50
2013,09,24,01,05,6.40
2013,09,24,01,06,6.40
2013,09,24,01,07,6.40
2013,09,24,01,08,6.40
2013,09,24,01,09,6.40
2013,09,24,01,10,6.30
2013,09,24,01,11,6.30
2013,09,24,01,12,6.30
2013,09,24,01,13,6.30
2013,09,24,01,14,6.30
2013,09,24,01,15,6.30
2013,09,24,01,16,6.30
2013,09,24,01,17,6.30
2013,09,24,01,18,6.30
2013,09,24,01,19,6.30
2013,09,24,01,20,6.30
2013,09,24,01,21,6.30
2013,09,24,01,22,6.30
2013,09,24,01,23,6.20
2013,09,24,01,24,6.20
2013,09,24,01,25,6.20
2013,09,24,01,26,6.20
2013,09,24,01,27,6.30
2013,09,24,01,28,6.30
2013,09,24,01,29,6.30
2013,09,24,01,30,6.40
2013,09,24,01,31,6.40
2013,09,24,01,32,6.40
2013,09,24,01,33,6.40
2013,09,24,01,34,6.40
2013,09,24,01,35,6.40
2013,09,24,01,36,6.40
2013,09,24,01,37,6.40
2013,09,24,01,38,6.40
2013,09,24,01,39,6.40
2013,09,24,01,40,6.40
2013,09,24,01,41,6.40
2013,09,24,01,42,6.40
2013,09,24,01,43,6.40
2013,09,24,01,44,6.40
2013,09,24,01,45,6.40
2013,09,24,01,46,6.40
2013,09,24,01,47,6.40
2013,09,24,01,48,6.40
2013,09,24,01,49,6.40
2013,09,24,01,50,6.40
2013,09,24,01,51,6.30
2013,09,24,01,52,6.30
2013,09,24,01,53,6.30
2013,09,24,01,54,6.30
2013,09,24,01,55,6.30
2013,09,24,01,56,6.30
2013,09,24,01,57,6.30
2013,09,24,01,58,6.20
2013,09,24,01,59,6.20
2013,09,24,02,00,6.20
2013,09,24,02,01,6.10
2013,09,24,02,02,6.10
2013,09,24,02,03,6.00
2013,09,24,02,04,6.00
2013,09,24,02,05,6.00
2013,09,24,02,06,5.90
2013,09,24,02,07,5.90
2013,09,24,02,08,5.90
2013,09,24,02,09,5.90
2013,09,24,02,10,5.90
2013,09,24,02,11,5.90
2013,09,24,02,12,5.90
2013,09,24,02,13,5.90
2013,09,24,02,14,5.80
2013,09,24,02,15,5.80
2013,09,24,02,16,5.90
2013,09,24,02,17,5.90
2013,09,24,02,18,5.90
2013,09,24,02,19,5.90
2013,09,24,02,20,5.90
2013,09,24,02,21,5.90
2013,09,24,02,22,5.90
2013,09,24,02,23,5.90
2013,09,24,02,24,5.90
2013,09,24,02,25,5.90
2013,09,24,02,26,5.90
2013,09,24,02,27,5.90
2013,09,24,02,28,5.90
2013,09,24,02,29,5.90
2013,09,24,02,30,5.90
2013,09,24,02,31,5.90
2013,09,24,02,32,5.90
2013,09,24,02,33,5.90
2013,09,24,02,34,5.90
2013,09,24,02,35,5.90
2013,09,24,02,36,5.90
2013,09,24,02,37,5.90
2013,09,24,02,38,5.90
2013,09,24,02,39,5.90
2013,09,24,02,40,5.90
2013,09,24,02,41,5.90
2013,09,24,02,42,5.90
2013,09,24,02,43,5.90
2013,09,24,02,44,5.90
2013,09,24,02,45,5.90
2013,09,24,02,46,5.90
2013,09,24,02,47,5.90
2013,09,24,02,48,5.90
2013,09,24,02,49,5.80
2013,09,24,02,50,5.80
2013,09,24,02,51,5.90
2013,09,24,02,52,5.90
2013,09,24,02,53,5.90
2013,09,24,02,54,5.90
2013,09,24,02,55,5.90
2013,09,24,02,56,5.90
2013,09,24,02,57,5.90
2013,09,24,02,58,5.90
2013,09,24,02,59,5.90
2013,09,24,03,00,5.90
2013,09,24,03,01,6.00
2013,09,24,03,02,6.00
2013,09,24,03,03,6.00
2013,09,24,03,06,6.10
2013,09,24,03,07,6.10
2013,09,24,03,08,6.10
2013,09,24,03,09,6.10
2013,09,24,03,10,6.10
2013,09,24,03,11,6.10
2013,09,24,03,12,6.20
2013,09,24,03,13,6.20
2013,09,24,03,14,6.20
2013,09,24,03,15,6.20
2013,09,24,03,16,6.20
2013,09,24,03,17,6.20
2013,09,24,03,18,6.20
2013,09,24,03,19,6.20
2013,09,24,03,20,6.20
2013,09,24,03,21,6.20
2013,09,24,03,22,6.20
2013,09,24,03,23,6.20
2013,09,24,03,24,6.20
2013,09,24,03,25,6.30
2013,09,24,03,26,6.30
2013,09,24,03,27,6.30
2013,09,24,03,28,6.30
2013,09,24,03,29,6.30
2013,09,24,03,30,6.30
2013,09,24,03,31,6.30
2013,09,24,03,32,6.40
2013,09,24,03,33,6.40
2013,09,24,03,34,6.40
2013,09,24,03,35,6.40
2013,09,24,03,36,6.40
2013,09,24,03,37,6.40
2013,09,24,03,38,6.40
2013,09,24,03,39,6.40
2013,09,24,03,40,6.40
2013,09,24,03,41,6.40
2013,09,24,03,42,6.40
2013,09,24,03,43,6.40
2013,09,24,03,44,6.40
2013,09,24,03,45,6.40
2013,09,24,03,46,6.40
2013,09,24,03,47,6.40
2013,09,24,03,48,6.40
2013,09,24,03,49,6.50
2013,09,24,03,50,6.50
2013,09,24,03,51,6.50
2013,09,24,03,52,6.50
2013,09,24,03,53,6.50
2013,09,24,03,54,6.50
2013,09,24,03,55,6.50
2013,09,24,03,56,6.50
2013,09,24,03,57,6.60
2013,09,24,03,58,6.60
2013,09,24,03,59,6.60
2013,09,24,04,00,6.60
2013,09,24,04,01,6.60
2013,09,24,04,02,6.60
2013,09,24,04,03,6.60
2013,09,24,04,04,6.60
2013,09,24,04,05,6.60
2013,09,24,04,06,6.60
2013,09,24,04,07,6.60
2013,09,24,04,08,6.60
2013,09,24,04,09,6.70
2013,09,24,04,10,6.70
2013,09,24,04,11,6.70
2013,09,24,04,12,6.70
2013,09,24,04,13,6.80
2013,09,24,04,14,6.80
2013,09,24,04,15,6.80
2013,09,24,04,16,6.80
2013,09,24,04,17,6.80
2013,09,24,04,18,6.80
2013,09,24,04,19,6.80
2013,09,24,04,20,6.80
2013,09,24,04,21,6.80
2013,09,24,04,22,6.80
2013,09,24,04,23,6.80
2013,09,24,04,24,6.80
2013,09,24,04,25,6.90
2013,09,24,04,26,6.90
2013,09,24,04,27,6.90
2013,09,24,04,28,6.90
2013,09,24,04,29,6.90
2013,09,24,04,30,6.90
2013,09,24,04,31,6.90
2013,09,24,04,32,6.90
2013,09,24,04,33,7.00
2013,09,24,04,34,7.00
2013,09,24,04,35,7.00
2013,09,24,04,36,7.00
2013,09,24,04,37,7.10
2013,09,24,04,38,7.10
2013,09,24,04,39,7.10
2013,09,24,04,40,7.10
2013,09,24,04,41,7.10
2013,09,24,04,42,7.10
2013,09,24,04,43,7.10
2013,09,24,04,44,7.10
2013,09,24,04,45,7.10
2013,09,24,04,46,7.10
2013,09,24,04,47,7.10
2013,09,24,04,48,7.10
2013,09,24,04,49,7.10
2013,09,24,04,50,7.10
2013,09,24,04,51,7.10
2013,09,24,04,52,7.10
2013,09,24,04,53,7.10
2013,09,24,04,54,7.20
2013,09,24,04,55,7.20
2013,09,24,04,56,7.20
2013,09,24,04,57,7.20
2013,09,24,04,58,7.20
2013,09,24,04,59,7.20
2013,09,24,05,00,7.20
2013,09,24,05,01,7.20
2013,09,24,05,02,7.20
2013,09,24,05,03,7.20
2013,09,24,05,04,7.20
2013,09,24,05,05,7.20
2013,09,24,05,06,7.20
2013,09,24,05,07,7.20
2013,09,24,05,08,7.20
2013,09,24,05,09,7.20
2013,09,24,05,10,7.20
2013,09,24,05,11,7.20
2013,09,24,05,12,7.20
2013,09,24,05,13,7.20
2013,09,24,05,14,7.20
2013,09,24,05,15,7.20
2013,09,24,05,16,7.20
2013,09,24,05,17,7.20
2013,09,24,05,18,7.30
2013,09,24,05,19,7.30
2013,09,24,05,20,7.30
2013,09,24,05,21,7.30
2013,09,24,05,22,7.30
2013,09,24,05,23,7.40
2013,09,24,05,24,7.40
2013,09,24,05,25,7.40
2013,09,24,05,26,7.40
2013,09,24,05,27,7.40
2013,09,24,05,28,7.40
2013,09,24,05,29,7.40
2013,09,24,05,30,7.40
2013,09,24,05,31,7.50
2013,09,24,05,32,7.50
2013,09,24,05,33,7.50
2013,09,24,05,34,7.50
2013,09,24,05,35,7.60
2013,09,24,05,36,7.60
2013,09,24,05,37,7.60
2013,09,24,05,38,7.60
2013,09,24,05,39,7.70
2013,09,24,05,40,7.70
2013,09,24,05,41,7.70
2013,09,24,05,42,7.70
2013,09,24,05,43,7.70
2013,09,24,05,44,7.70
2013,09,24,05,45,7.70
2013,09,24,05,46,7.70
2013,09,24,05,47,7.70
2013,09,24,05,48,7.70
2013,09,24,05,49,7.70
2013,09,24,05,50,7.70
2013,09,24,05,51,7.70
2013,09,24,05,52,7.70
2013,09,24,05,53,7.70
2013,09,24,05,54,7.70
2013,09,24,05,55,7.70
2013,09,24,05,56,7.70
2013,09,24,05,57,7.70
2013,09,24,05,58,7.60
2013,09,24,05,59,7.60
2013,09,24,06,00,7.60
2013,09,24,06,01,7.60
2013,09,24,06,02,7.60
2013,09,24,06,03,7.70
2013,09,24,06,04,7.70
2013,09,24,06,05,7.70
2013,09,24,06,06,7.70
2013,09,24,06,07,7.70
2013,09,24,06,08,7.70
2013,09,24,06,09,7.70
2013,09,24,06,10,7.70
2013,09,24,06,11,7.80
2013,09,24,06,12,7.80
2013,09,24,06,13,7.80
2013,09,24,06,14,7.80
2013,09,24,06,15,7.80
2013,09,24,06,16,7.80
2013,09,24,06,17,7.80
2013,09,24,06,18,7.80
2013,09,24,06,19,7.80
2013,09,24,06,20,7.80
2013,09,24,06,21,7.80
2013,09,24,06,22,7.80
2013,09,24,06,23,7.80
2013,09,24,06,24,7.80
2013,09,24,06,25,7.80
2013,09,24,06,26,7.80
2013,09,24,06,27,7.80
2013,09,24,06,28,7.80
2013,09,24,06,29,7.80
2013,09,24,06,30,7.80
2013,09,24,06,31,7.80
2013,09,24,06,32,7.80
2013,09,24,06,33,7.80
2013,09,24,06,34,7.80
2013,09,24,06,35,7.80
2013,09,24,06,36,7.90
2013,09,24,06,37,7.90
2013,09,24,06,38,7.90
2013,09,24,06,39,7.90
2013,09,24,06,40,7.90
2013,09,24,06,41,7.90
2013,09,24,06,42,7.90
2013,09,24,06,43,7.90
2013,09,24,06,44,7.90
2013,09,24,06,45,7.90
2013,09,24,06,46,7.90
2013,09,24,06,47,7.90
2013,09,24,06,48,7.90
2013,09,24,06,49,7.90
2013,09,24,06,50,7.90
2013,09,24,06,51,7.90
2013,09,24,06,52,7.90
2013,09,24,06,53,7.90
2013,09,24,06,54,7.80
2013,09,24,06,55,7.80
2013,09,24,06,56,7.80
2013,09,24,06,57,7.80
2013,09,24,06,58,7.90
2013,09,24,06,59,7.90
2013,09,24,07,00,7.90
2013,09,24,07,01,7.90
2013,09,24,07,02,7.90
2013,09,24,07,03,7.90
2013,09,24,07,04,7.90
2013,09,24,07,05,7.90
2013,09,24,07,06,7.90
2013,09,24,07,07,7.90
2013,09,24,07,08,7.90
2013,09,24,07,09,7.80
2013,09,24,07,10,7.90
2013,09,24,07,11,7.80
2013,09,24,07,12,7.90
2013,09,24,07,13,7.90
2013,09,24,07,14,7.90
2013,09,24,07,15,7.90
2013,09,24,07,16,7.90
2013,09,24,07,17,7.90
2013,09,24,07,18,7.90
2013,09,24,07,19,8.00
2013,09,24,07,20,8.00
2013,09,24,07,21,8.00
2013,09,24,07,22,8.00
2013,09,24,07,23,8.10
2013,09,24,07,24,8.10
2013,09,24,07,25,8.10
2013,09,24,07,26,8.10
2013,09,24,07,27,8.10
2013,09,24,07,28,8.10
2013,09,24,07,29,8.10
2013,09,24,07,30,8.20
2013,09,24,07,31,8.20
2013,09,24,07,32,8.20
2013,09,24,07,33,8.20
2013,09,24,07,34,8.30
2013,09,24,07,35,8.30
2013,09,24,07,36,8.30
2013,09,24,07,37,8.30
2013,09,24,07,38,8.30
2013,09,24,07,39,8.30
2013,09,24,07,40,8.30
2013,09,24,07,41,8.30
2013,09,24,07,42,8.30
2013,09,24,07,43,8.30
2013,09,24,07,44,8.30
2013,09,24,07,45,8.30
2013,09,24,07,46,8.30
2013,09,24,07,47,8.40
2013,09,24,07,48,8.40
2013,09,24,07,49,8.40
2013,09,24,07,50,8.40
2013,09,24,07,51,8.40
2013,09,24,07,52,8.40
2013,09,24,07,53,8.40
2013,09,24,07,54,8.40
2013,09,24,07,55,8.40
2013,09,24,07,56,8.40
2013,09,24,07,57,8.40
2013,09,24,07,58,8.30
2013,09,24,07,59,8.30
2013,09,24,08,00,8.30
2013,09,24,08,01,8.30
2013,09,24,08,02,8.30
2013,09,24,08,03,8.20
2013,09,24,08,04,8.20
2013,09,24,08,05,8.20
2013,09,24,08,06,8.20
2013,09,24,08,07,8.20
2013,09,24,08,08,8.20
2013,09,24,08,09,8.20
2013,09,24,08,10,8.20
2013,09,24,08,11,8.20
2013,09,24,08,12,8.20
2013,09,24,08,13,8.20
2013,09,24,08,14,8.20
2013,09,24,08,15,8.20
2013,09,24,08,16,8.30
2013,09,24,08,17,8.30
2013,09,24,08,18,8.30
2013,09,24,08,19,8.30
2013,09,24,08,20,8.30
2013,09,24,08,21,8.30
2013,09,24,08,22,8.30
2013,09,24,08,23,8.30
2013,09,24,08,24,8.30
2013,09,24,08,25,8.30
2013,09,24,08,26,8.40
2013,09,24,08,27,8.40
2013,09,24,08,28,8.40
2013,09,24,08,29,8.40
2013,09,24,08,30,8.50
2013,09,24,08,31,8.50
2013,09,24,08,32,8.60
2013,09,24,08,33,8.60
2013,09,24,08,34,8.60
2013,09,24,08,35,8.60
2013,09,24,08,36,8.70
2013,09,24,08,37,8.70
2013,09,24,08,38,8.70
2013,09,24,08,39,8.70
2013,09,24,08,40,8.80
2013,09,24,08,41,8.80
2013,09,24,08,42,8.80
2013,09,24,08,43,8.80
2013,09,24,08,44,8.80
2013,09,24,08,45,8.80
2013,09,24,08,46,8.80
2013,09,24,08,47,8.80
2013,09,24,08,48,8.80
2013,09,24,08,49,8.80
2013,09,24,08,50,8.80
2013,09,24,08,51,8.80
2013,09,24,08,52,8.90
2013,09,24,08,53,8.90
2013,09,24,08,54,8.90
2013,09,24,08,55,8.90
2013,09,24,08,56,8.90
2013,09,24,08,57,9.00
2013,09,24,08,58,9.00
2013,09,24,08,59,9.10
2013,09,24,09,00,9.10
2013,09,24,09,01,9.10
2013,09,24,09,02,9.20
2013,09,24,09,03,9.20
2013,09,24,09,04,9.20
2013,09,24,09,05,9.20
2013,09,24,09,06,9.30
2013,09,24,09,07,9.30
2013,09,24,09,08,9.30
2013,09,24,09,09,9.30
2013,09,24,09,10,9.30
2013,09,24,09,11,9.40
2013,09,24,09,12,9.40
2013,09,24,09,13,9.40
2013,09,24,09,14,9.40
2013,09,24,09,15,9.40
2013,09,24,09,16,9.50
2013,09,24,09,17,9.60
2013,09,24,09,18,9.60
2013,09,24,09,19,9.60
2013,09,24,09,20,9.60
2013,09,24,09,21,9.70
2013,09,24,09,22,9.70
2013,09,24,09,23,9.80
2013,09,24,09,24,9.80
2013,09,24,09,25,9.80
2013,09,24,09,26,9.90
2013,09,24,09,27,9.90
2013,09,24,09,28,9.90
2013,09,24,09,29,9.90
2013,09,24,09,30,9.90
2013,09,24,09,31,10.00
2013,09,24,09,32,10.00
2013,09,24,09,33,10.00
2013,09,24,09,34,10.00
2013,09,24,09,35,10.00
2013,09,24,09,36,10.00
2013,09,24,09,37,10.00
2013,09,24,09,38,10.10
2013,09,24,09,39,10.10
2013,09,24,09,40,10.10
2013,09,24,09,41,10.20
2013,09,24,09,42,10.20
2013,09,24,09,43,10.30
2013,09,24,09,44,10.30
2013,09,24,09,45,10.40
2013,09,24,09,46,10.40
2013,09,24,09,47,10.40
2013,09,24,09,48,10.40
2013,09,24,09,49,10.50
2013,09,24,09,50,10.50
2013,09,24,09,51,10.50
2013,09,24,09,52,10.60
2013,09,24,09,53,10.60
2013,09,24,09,54,10.60
2013,09,24,09,55,10.60
2013,09,24,09,56,10.60
2013,09,24,09,57,10.60
2013,09,24,09,58,10.60
2013,09,24,09,59,10.60
2013,09,24,10,00,10.60
2013,09,24,10,01,10.70
2013,09,24,10,02,10.70
2013,09,24,10,03,10.80
2013,09,24,10,04,10.80
2013,09,24,10,05,10.90
2013,09,24,10,06,10.90
2013,09,24,10,07,11.00
2013,09,24,10,08,11.10
2013,09,24,10,09,11.10
2013,09,24,10,10,11.10
2013,09,24,10,11,11.10
2013,09,24,10,12,11.10
2013,09,24,10,13,11.10
2013,09,24,10,14,11.20
2013,09,24,10,15,11.20
2013,09,24,10,16,11.20
2013,09,24,10,17,11.20
2013,09,24,10,18,11.20
2013,09,24,10,19,11.30
2013,09,24,10,20,11.30
2013,09,24,10,21,11.40
2013,09,24,10,22,11.40
2013,09,24,10,23,11.40
2013,09,24,10,24,11.50
2013,09,24,10,25,11.50
2013,09,24,10,26,11.60
2013,09,24,10,27,11.60
2013,09,24,10,28,11.70
2013,09,24,10,29,11.80
2013,09,24,10,30,11.90
2013,09,24,10,31,12.00
2013,09,24,10,32,12.20
2013,09,24,10,33,12.40
2013,09,24,10,34,12.50
2013,09,24,10,35,12.70
2013,09,24,10,36,12.70
2013,09,24,10,37,12.70
2013,09,24,10,38,12.70
2013,09,24,10,39,12.80
2013,09,24,10,40,12.80
2013,09,24,10,41,12.80
2013,09,24,10,42,12.80
2013,09,24,10,43,12.80
2013,09,24,10,44,12.80
2013,09,24,10,45,12.80
2013,09,24,10,46,12.80
2013,09,24,10,47,12.80
2013,09,24,10,48,12.80
2013,09,24,10,49,12.80
2013,09,24,10,50,12.90
2013,09,24,10,51,12.90
2013,09,24,10,52,13.00
2013,09,24,10,53,13.10
2013,09,24,10,54,13.20
2013,09,24,10,55,13.30
2013,09,24,10,56,13.40
2013,09,24,10,57,13.50
2013,09,24,10,58,13.60
2013,09,24,10,59,13.60
2013,09,24,11,00,13.70
2013,09,24,11,01,13.70
2013,09,24,11,02,13.60
2013,09,24,11,03,13.50
2013,09,24,11,04,13.50
2013,09,24,11,05,13.40
2013,09,24,11,06,13.40
2013,09,24,11,07,13.40
2013,09,24,11,08,13.40
2013,09,24,11,09,13.40
2013,09,24,11,10,13.50
2013,09,24,11,11,13.50
2013,09,24,11,12,13.40
2013,09,24,11,13,13.50
2013,09,24,11,14,13.40
2013,09,24,11,15,13.40
2013,09,24,11,16,13.40
2013,09,24,11,17,13.30
2013,09,24,11,18,13.30
2013,09,24,11,19,13.20
2013,09,24,11,20,13.20
2013,09,24,11,21,13.20
2013,09,24,11,22,13.10
2013,09,24,11,23,13.10
2013,09,24,11,24,13.20
2013,09,24,11,25,13.20
2013,09,24,11,26,13.30
2013,09,24,11,27,13.30
2013,09,24,11,28,13.40
2013,09,24,11,29,13.40
2013,09,24,11,30,13.40
2013,09,24,11,31,13.40
2013,09,24,11,32,13.40
2013,09,24,11,33,13.50
2013,09,24,11,34,13.50
2013,09,24,11,35,13.60
2013,09,24,11,36,13.50
2013,09,24,11,37,13.50
2013,09,24,11,38,13.60
2013,09,24,11,39,13.50
2013,09,24,11,40,13.50
2013,09,24,11,41,13.60
2013,09,24,11,42,13.60
2013,09,24,11,43,13.70
2013,09,24,11,44,13.70
2013,09,24,11,45,13.70
2013,09,24,11,46,13.80
2013,09,24,11,47,13.80
2013,09,24,11,48,13.80
2013,09,24,11,49,13.80
2013,09,24,11,50,13.80
2013,09,24,11,51,13.80
2013,09,24,11,52,13.90
2013,09,24,11,53,13.80
2013,09,24,11,54,13.80
2013,09,24,11,55,13.70
2013,09,24,11,56,13.70
2013,09,24,11,57,13.60
2013,09,24,11,58,13.60
2013,09,24,11,59,13.60
2013,09,24,12,00,13.70
2013,09,24,12,01,13.70
2013,09,24,12,02,13.80
2013,09,24,12,03,13.80
2013,09,24,12,04,13.90
2013,09,24,12,05,13.90
2013,09,24,12,06,13.90
2013,09,24,12,07,13.90
2013,09,24,12,08,13.90
2013,09,24,12,09,14.00
2013,09,24,12,10,14.10
2013,09,24,12,11,14.10
2013,09,24,12,12,14.10
2013,09,24,12,13,14.10
2013,09,24,12,14,14.00
2013,09,24,12,15,13.90
2013,09,24,12,16,13.90
2013,09,24,12,17,13.80
2013,09,24,12,18,13.80
2013,09,24,12,19,13.80
2013,09,24,12,20,13.80
2013,09,24,12,21,13.70
2013,09,24,12,22,13.80
2013,09,24,12,23,13.80
2013,09,24,12,24,13.80
2013,09,24,12,25,13.80
2013,09,24,12,26,13.80
2013,09,24,12,27,13.80
2013,09,24,12,28,13.80
2013,09,24,12,29,13.80
2013,09,24,12,30,13.70
2013,09,24,12,31,13.60
2013,09,24,12,32,13.60
2013,09,24,12,33,13.60
2013,09,24,12,34,13.50
2013,09,24,12,35,13.50
2013,09,24,12,36,13.50
2013,09,24,12,37,13.40
2013,09,24,12,38,13.40
2013,09,24,12,39,13.40
2013,09,24,12,40,13.30
2013,09,24,12,41,13.30
2013,09,24,12,42,13.20
2013,09,24,12,43,13.20
2013,09,24,12,44,13.10
2013,09,24,12,45,13.10
2013,09,24,12,46,13.10
2013,09,24,12,47,13.10
2013,09,24,12,48,13.10
2013,09,24,12,49,13.10
2013,09,24,12,50,13.10
2013,09,24,12,51,13.00
2013,09,24,12,52,13.00
2013,09,24,12,53,12.90
2013,09,24,12,54,12.90
2013,09,24,12,55,12.80
2013,09,24,12,56,12.80
2013,09,24,12,57,12.70
2013,09,24,12,58,12.60
2013,09,24,12,59,12.60
2013,09,24,13,00,12.50
2013,09,24,13,01,12.40
2013,09,24,13,02,12.40
2013,09,24,13,03,12.30
2013,09,24,13,04,12.30
2013,09,24,13,05,12.30
2013,09,24,13,06,12.30
2013,09,24,13,07,12.20
2013,09,24,13,08,12.20
2013,09,24,13,09,12.20
2013,09,24,13,10,12.20
2013,09,24,13,11,12.20
2013,09,24,13,12,12.10
2013,09,24,13,13,12.10
2013,09,24,13,14,12.10
2013,09,24,13,15,12.10
2013,09,24,13,16,12.00
2013,09,24,13,17,12.00
2013,09,24,13,18,12.00
2013,09,24,13,19,11.90
2013,09,24,13,20,11.90
2013,09,24,13,21,11.80
2013,09,24,13,22,11.80
2013,09,24,13,23,11.70
2013,09,24,13,24,11.70
2013,09,24,13,25,11.70
2013,09,24,13,26,11.70
2013,09,24,13,27,11.60
2013,09,24,13,28,11.60
2013,09,24,13,29,11.60
2013,09,24,13,30,11.50
2013,09,24,13,31,11.50
2013,09,24,13,32,11.50
2013,09,24,13,33,11.50
2013,09,24,13,34,11.50
2013,09,24,13,35,11.60
2013,09,24,13,36,11.60
2013,09,24,13,37,11.60
2013,09,24,13,38,11.60
2013,09,24,13,39,11.60
2013,09,24,13,40,11.50
2013,09,24,13,41,11.50
2013,09,24,13,42,11.50
2013,09,24,13,43,11.50
2013,09,24,13,44,11.50
2013,09,24,13,45,11.50
2013,09,24,13,46,11.50
2013,09,24,13,47,11.50
2013,09,24,13,48,11.60
2013,09,24,13,49,11.60
2013,09,24,13,50,11.60
2013,09,24,13,51,11.60
2013,09,24,13,52,11.70
2013,09,24,13,53,11.70
2013,09,24,13,54,11.70
2013,09,24,13,55,11.70
2013,09,24,13,56,11.70
2013,09,24,13,57,11.80
2013,09,24,13,58,11.80
2013,09,24,13,59,11.90
2013,09,24,14,00,12.00
2013,09,24,14,01,12.00
2013,09,24,14,02,12.10
2013,09,24,14,03,12.10
2013,09,24,14,04,12.20
2013,09,24,14,05,12.20
2013,09,24,14,06,12.20
2013,09,24,14,07,12.20
2013,09,24,14,08,12.20
2013,09,24,14,09,12.20
2013,09,24,14,10,12.20
2013,09,24,14,11,12.20
2013,09,24,14,12,12.20
2013,09,24,14,13,12.20
2013,09,24,14,14,12.10
2013,09,24,14,15,12.10
2013,09,24,14,16,12.10
2013,09,24,14,17,12.10
2013,09,24,14,18,12.10
2013,09,24,14,19,12.10
2013,09,24,14,20,12.00
2013,09,24,14,21,12.00
2013,09,24,14,22,12.00
2013,09,24,14,23,12.00
2013,09,24,14,24,12.00
2013,09,24,14,25,12.00
2013,09,24,14,26,12.00
2013,09,24,14,27,12.00
2013,09,24,14,28,12.00
2013,09,24,14,29,12.00
2013,09,24,14,30,12.00
2013,09,24,14,31,11.90
2013,09,24,14,32,11.90
2013,09,24,14,33,11.80
2013,09,24,14,34,11.80
2013,09,24,14,35,11.70
2013,09,24,14,36,11.70
2013,09,24,14,37,11.60
2013,09,24,14,38,11.60
2013,09,24,14,39,11.60
2013,09,24,14,40,11.60
2013,09,24,14,41,11.60
2013,09,24,14,42,11.50
2013,09,24,14,43,11.50
2013,09,24,14,44,11.40
2013,09,24,14,45,11.40
2013,09,24,14,46,11.40
2013,09,24,14,47,11.40
2013,09,24,14,48,11.50
2013,09,24,14,49,11.50
2013,09,24,14,50,11.50
2013,09,24,14,51,11.50
2013,09,24,14,52,11.50
2013,09,24,14,53,11.60
2013,09,24,14,54,11.50
2013,09,24,14,55,11.50
2013,09,24,14,56,11.50
2013,09,24,14,57,11.50
2013,09,24,14,58,11.50
2013,09,24,14,59,11.50
2013,09,24,15,00,11.50
2013,09,24,15,01,11.50
2013,09,24,15,02,11.50
2013,09,24,15,03,11.50
2013,09,24,15,04,11.50
2013,09,24,15,05,11.50
2013,09,24,15,06,11.50
2013,09,24,15,07,11.50
2013,09,24,15,08,11.50
2013,09,24,15,09,11.50
2013,09,24,15,10,11.50
2013,09,24,15,11,11.50
2013,09,24,15,12,11.50
2013,09,24,15,13,11.50
2013,09,24,15,14,11.60
2013,09,24,15,15,11.60
2013,09,24,15,16,11.60
2013,09,24,15,17,11.60
2013,09,24,15,18,11.60
2013,09,24,15,19,11.70
2013,09,24,15,20,11.70
2013,09,24,15,21,11.70
2013,09,24,15,22,11.70
2013,09,24,15,23,11.70
2013,09,24,15,24,11.70
2013,09,24,15,25,11.70
2013,09,24,15,26,11.80
2013,09,24,15,27,11.80
2013,09,24,15,28,11.80
2013,09,24,15,29,11.80
2013,09,24,15,30,11.80
2013,09,24,15,31,11.80
2013,09,24,15,32,11.80
2013,09,24,15,33,11.80
2013,09,24,15,34,11.80
2013,09,24,15,35,11.80
2013,09,24,15,36,11.80
2013,09,24,15,37,11.70
2013,09,24,15,38,11.70
2013,09,24,15,39,11.70
2013,09,24,15,40,11.70
2013,09,24,15,41,11.70
2013,09,24,15,42,11.70
2013,09,24,15,43,11.70
2013,09,24,15,44,11.70
2013,09,24,15,45,11.80
2013,09,24,15,46,11.80
2013,09,24,15,47,11.80
2013,09,24,15,48,11.90
2013,09,24,15,49,11.90
2013,09,24,15,50,11.90
2013,09,24,15,51,11.90
2013,09,24,15,52,11.80
2013,09,24,15,53,11.90
2013,09,24,15,54,11.90
2013,09,24,15,55,11.90
2013,09,24,15,56,11.90
2013,09,24,15,57,12.00
2013,09,24,15,58,12.10
2013,09,24,15,59,12.10
2013,09,24,16,00,12.10
2013,09,24,16,01,12.20
2013,09,24,16,02,12.20
2013,09,24,16,03,12.20
2013,09,24,16,04,12.30
2013,09,24,16,05,12.30
2013,09,24,16,06,12.30
2013,09,24,16,07,12.40
2013,09,24,16,08,12.40
2013,09,24,16,09,12.40
2013,09,24,16,10,12.40
2013,09,24,16,11,12.40
2013,09,24,16,12,12.40
2013,09,24,16,13,12.40
2013,09,24,16,14,12.40
2013,09,24,16,15,12.40
2013,09,24,16,16,12.40
2013,09,24,16,17,12.40
2013,09,24,16,18,12.40
2013,09,24,16,19,12.40
2013,09,24,16,20,12.40
2013,09,24,16,21,12.40
2013,09,24,16,22,12.40
2013,09,24,16,23,12.40
2013,09,24,16,24,12.40
2013,09,24,16,25,12.40
2013,09,24,16,26,12.40
2013,09,24,16,27,12.40
2013,09,24,16,28,12.50
2013,09,24,16,29,12.50
2013,09,24,16,30,12.50
2013,09,24,16,31,12.60
2013,09,24,16,32,12.60
2013,09,24,16,33,12.60
2013,09,24,16,34,12.60
2013,09,24,16,35,12.60
2013,09,24,16,36,12.60
2013,09,24,16,37,12.60
2013,09,24,16,38,12.60
2013,09,24,16,39,12.50
2013,09,24,16,40,12.50
2013,09,24,16,41,12.50
2013,09,24,16,42,12.60
2013,09,24,16,43,12.60
2013,09,24,16,44,12.60
2013,09,24,16,45,12.60
2013,09,24,16,46,12.60
2013,09,24,16,47,12.60
2013,09,24,16,48,12.60
2013,09,24,16,49,12.60
2013,09,24,16,50,12.60
2013,09,24,16,51,12.50
2013,09,24,16,52,12.50
2013,09,24,16,53,12.40
2013,09,24,16,54,12.40
2013,09,24,16,55,12.40
2013,09,24,16,56,12.30
2013,09,24,16,57,12.30
2013,09,24,16,58,12.30
2013,09,24,16,59,12.30
2013,09,24,17,00,12.30
2013,09,24,17,01,12.30
2013,09,24,17,02,12.20
2013,09,24,17,03,12.20
2013,09,24,17,04,12.20
2013,09,24,17,05,12.30
2013,09,24,17,06,12.20
2013,09,24,17,07,12.20
2013,09,24,17,08,12.20
2013,09,24,17,09,12.20
2013,09,24,17,10,12.20
2013,09,24,17,11,12.20
2013,09,24,17,12,12.20
2013,09,24,17,13,12.20
2013,09,24,17,14,12.10
2013,09,24,17,15,12.10
2013,09,24,17,16,12.10
2013,09,24,17,17,12.10
2013,09,24,17,18,12.10
2013,09,24,17,19,12.10
2013,09,24,17,20,12.10
2013,09,24,17,21,12.10
2013,09,24,17,22,12.10
2013,09,24,17,23,12.10
2013,09,24,17,24,12.10
2013,09,24,17,25,12.10
2013,09,24,17,26,12.00
2013,09,24,17,27,12.00
2013,09,24,17,28,12.00
2013,09,24,17,29,12.00
2013,09,24,17,30,12.00
2013,09,24,17,31,12.00
2013,09,24,17,32,12.00
2013,09,24,17,33,12.00
2013,09,24,17,34,12.00
2013,09,24,17,35,12.00
2013,09,24,17,36,12.00
2013,09,24,17,37,12.00
2013,09,24,17,38,12.00
2013,09,24,17,39,12.00
2013,09,24,17,40,12.00
2013,09,24,17,41,12.00
2013,09,24,17,42,12.00
2013,09,24,17,43,12.00
2013,09,24,17,44,12.00
2013,09,24,17,45,12.00
2013,09,24,17,46,12.00